Time,TemperatureF,DewpointF,PressureIn,WindDirection,WindDirectionDegrees,WindSpeedMPH,WindSpeedGustMPH,Humidity,HourlyPrecipIn,Conditions,Clouds,dailyrainin,SoftwareType,DateUTC
2013-07-07 01:41:00,74.0,72.0,30.19,ESE,103,0.0,0.0,93,-99.99,,,-99.99,,2013-07-07 05:41:00,
2013-07-07 01:51:00,74.0,72.0,30.19,ESE,103,0.0,0.0,93,-99.99,,,-99.99,,2013-07-07 05:51:00,
2013-07-07 02:01:00,74.0,72.0,30.19,ESE,103,0.0,0.0,93,-99.99,,,-99.99,,2013-07-07 06:01:00,
2013-07-07 02:11:00,74.0,72.0,30.19,ESE,102,0.0,0.0,93,-99.99,,,-99.99,,2013-07-07 06:11:00,
2013-07-07 02:21:00,74.0,72.0,30.19,ESE,102,0.0,0.0,93,-99.99,,,-99.99,,2013-07-07 06:21:00,
2013-07-07 02:32:00,74.0,72.0,30.18,ESE,102,0.0,0.0,93,-99.99,,,-99.99,,2013-07-07 06:32:00,
2013-07-07 02:43:00,74.0,72.0,30.18,ESE,102,0.0,0.0,93,-99.99,,,-99.99,,2013-07-07 06:43:00,
2013-07-07 02:52:00,74.0,72.0,30.18,ESE,102,0.0,0.0,92,-99.99,,,-99.99,,2013-07-07 06:52:00,
2013-07-07 03:02:00,74.0,72.0,30.18,ESE,102,0.0,0.0,92,-99.99,,,-99.99,,2013-07-07 07:02:00,
2013-07-07 03:11:00,74.0,72.0,30.18,ESE,102,0.0,0.0,92,-99.99,,,-99.99,,2013-07-07 07:11:00,
2013-07-07 03:22:00,74.0,72.0,30.18,ESE,102,0.0,0.0,92,-99.99,,,-99.99,,2013-07-07 07:22:00,
2013-07-07 03:33:00,74.0,72.0,30.18,ESE,102,0.0,1.0,93,-99.99,,,-99.99,,2013-07-07 07:33:00,
2013-07-07 03:44:00,74.0,72.0,30.18,ESE,103,0.0,1.0,93,-99.99,,,-99.99,,2013-07-07 07:44:00,
2013-07-07 03:53:00,74.0,72.0,30.18,ESE,102,0.0,0.0,93,-99.99,,,-99.99,,2013-07-07 07:53:00,
2013-07-07 04:03:00,73.0,71.0,30.18,ESE,102,0.0,0.0,93,-99.99,,,-99.99,,2013-07-07 08:03:00,
2013-07-07 04:12:00,73.0,71.0,30.18,ESE,102,0.0,1.0,93,-99.99,,,-99.99,,2013-07-07 08:12:00,
2013-07-07 04:22:00,73.0,71.0,30.18,ESE,102,0.0,1.0,93,-99.99,,,-99.99,,2013-07-07 08:22:00,
2013-07-07 04:34:00,73.0,71.0,30.18,East,101,0.0,0.0,93,-99.99,,,-99.99,,2013-07-07 08:34:00,
2013-07-07 04:44:00,73.0,71.0,30.18,East,101,0.0,0.0,93,-99.99,,,-99.99,,2013-07-07 08:44:00,
2013-07-07 04:53:00,73.0,71.0,30.17,ESE,102,0.0,0.0,93,-99.99,,,-99.99,,2013-07-07 08:53:00,
2013-07-07 05:02:00,73.0,71.0,30.17,ESE,102,0.0,0.0,93,-99.99,,,-99.99,,2013-07-07 09:02:00,
2013-07-07 05:12:00,73.0,71.0,30.18,East,101,0.0,0.0,93,-99.99,,,-99.99,,2013-07-07 09:12:00,
2013-07-07 05:22:00,73.0,71.0,30.17,East,101,0.0,0.0,94,-99.99,,,-99.99,,2013-07-07 09:22:00,
2013-07-07 05:34:00,73.0,71.0,30.17,ESE,102,0.0,0.0,94,-99.99,,,-99.99,,2013-07-07 09:34:00,
2013-07-07 05:43:00,73.0,71.0,30.18,ESE,102,0.0,0.0,94,-99.99,,,-99.99,,2013-07-07 09:43:00,
2013-07-07 05:53:00,73.0,71.0,30.18,ESE,102,0.0,0.0,94,-99.99,,,-99.99,,2013-07-07 09:53:00,
2013-07-07 06:03:00,73.0,71.0,30.18,ESE,102,0.0,0.0,94,-99.99,,,-99.99,,2013-07-07 10:03:00,
2013-07-07 06:22:00,73.0,71.0,30.18,ESE,102,0.0,0.0,94,-99.99,,,-99.99,,2013-07-07 10:22:00,
2013-07-07 06:32:00,73.0,71.0,30.18,ESE,102,0.0,0.0,94,-99.99,,,-99.99,,2013-07-07 10:32:00,
2013-07-07 06:43:00,73.0,71.0,30.18,ESE,102,0.0,0.0,94,-99.99,,,-99.99,,2013-07-07 10:43:00,
2013-07-07 06:52:00,73.0,71.0,30.18,ESE,102,0.0,0.0,94,-99.99,,,-99.99,,2013-07-07 10:52:00,
2013-07-07 07:02:00,73.0,71.0,30.18,ESE,102,0.0,0.0,94,-99.99,,,-99.99,,2013-07-07 11:02:00,
2013-07-07 07:12:00,74.0,72.0,30.18,ESE,102,0.0,0.0,94,-99.99,,,-99.99,,2013-07-07 11:12:00,
2013-07-07 07:23:00,74.0,72.0,30.18,ESE,102,0.0,0.0,94,-99.99,,,-99.99,,2013-07-07 11:23:00,
2013-07-07 07:34:00,74.0,72.0,30.18,ESE,102,0.0,0.0,94,-99.99,,,-99.99,,2013-07-07 11:34:00,
2013-07-07 07:43:00,74.0,72.0,30.18,ESE,102,0.0,0.0,94,-99.99,,,-99.99,,2013-07-07 11:43:00,
2013-07-07 07:53:00,76.0,74.0,30.19,ESE,102,0.0,0.0,93,-99.99,,,-99.99,,2013-07-07 11:53:00,
2013-07-07 08:02:00,76.0,74.0,30.19,ESE,102,0.0,0.0,93,-99.99,,,-99.99,,2013-07-07 12:02:00,
2013-07-07 08:22:00,78.0,75.0,30.19,ESE,103,0.0,1.0,91,-99.99,,,-99.99,,2013-07-07 12:22:00,
2013-07-07 08:34:00,78.0,75.0,30.19,ESE,103,0.0,1.0,90,-99.99,,,-99.99,,2013-07-07 12:34:00,
2013-07-07 08:43:00,78.0,74.0,30.19,SW,229,0.0,1.0,89,-99.99,,,-99.99,,2013-07-07 12:43:00,
2013-07-07 08:52:00,79.0,75.0,30.19,WSW,255,0.0,2.0,88,-99.99,,,-99.99,,2013-07-07 12:52:00,
2013-07-07 09:03:00,80.0,76.0,30.19,South,173,0.0,1.0,88,-99.99,,,-99.99,,2013-07-07 13:03:00,
2013-07-07 09:12:00,80.0,76.0,30.19,SW,229,0.0,1.0,87,-99.99,,,-99.99,,2013-07-07 13:12:00,
2013-07-07 09:22:00,81.0,77.0,30.19,SE,131,0.0,1.0,87,-99.99,,,-99.99,,2013-07-07 13:22:00,
2013-07-07 09:34:00,83.0,77.0,30.19,SW,228,0.0,1.0,83,-99.99,,,-99.99,,2013-07-07 13:34:00,
2013-07-07 09:43:00,84.0,78.0,30.19,WSW,246,0.0,2.0,81,-99.99,,,-99.99,,2013-07-07 13:43:00,
2013-07-07 09:52:00,85.0,78.0,30.18,SE,129,1.0,2.0,80,-99.99,,,-99.99,,2013-07-07 13:52:00,
2013-07-07 10:02:00,85.0,78.0,30.17,West,273,1.0,2.0,79,-99.99,,,-99.99,,2013-07-07 14:02:00,
2013-07-07 10:12:00,85.0,78.0,30.17,West,273,1.0,2.0,79,-99.99,,,-99.99,,2013-07-07 14:12:00,
2013-07-07 10:22:00,87.0,79.0,30.17,West,260,0.0,2.0,77,-99.99,,,-99.99,,2013-07-07 14:22:00,
2013-07-07 10:34:00,87.0,78.0,30.17,NNW,328,1.0,2.0,74,-99.99,,,-99.99,,2013-07-07 14:34:00,
2013-07-07 10:43:00,88.0,79.0,30.17,SSE,153,1.0,2.0,74,-99.99,,,-99.99,,2013-07-07 14:43:00,
2013-07-07 10:53:00,87.0,78.0,30.17,ESE,102,1.0,6.0,75,-99.99,,,-99.99,,2013-07-07 14:53:00,
2013-07-07 11:02:00,87.0,78.0,30.17,ESE,102,1.0,6.0,75,-99.99,,,-99.99,,2013-07-07 15:02:00,
2013-07-07 11:11:00,87.0,78.0,30.17,WNW,282,1.0,4.0,75,-99.99,,,-99.99,,2013-07-07 15:11:00,
2013-07-07 11:22:00,87.0,78.0,30.17,NNW,335,1.0,4.0,75,-99.99,,,-99.99,,2013-07-07 15:22:00,
2013-07-07 11:52:00,89.0,79.0,30.17,WSW,252,1.0,3.0,72,-99.99,,,-99.99,,2013-07-07 15:52:00,
2013-07-07 12:02:00,89.0,78.0,30.16,WNW,297,1.0,5.0,70,-99.99,,,-99.99,,2013-07-07 16:02:00,
2013-07-07 12:11:00,89.0,78.0,30.16,West,274,1.0,3.0,71,-99.99,,,-99.99,,2013-07-07 16:11:00,
2013-07-07 12:23:00,89.0,78.0,30.16,SSE,160,1.0,3.0,71,-99.99,,,-99.99,,2013-07-07 16:23:00,
2013-07-07 12:43:00,89.0,76.0,30.16,South,191,1.0,4.0,66,-99.99,,,-99.99,,2013-07-07 16:43:00,
2013-07-07 12:53:00,89.0,76.0,30.16,South,191,1.0,4.0,66,-99.99,,,-99.99,,2013-07-07 16:53:00,
2013-07-07 13:02:00,90.0,76.0,30.15,SW,232,1.0,5.0,63,-99.99,,,-99.99,,2013-07-07 17:02:00,
2013-07-07 13:12:00,90.0,76.0,30.15,WSW,252,2.0,5.0,63,-99.99,,,-99.99,,2013-07-07 17:12:00,
2013-07-07 13:22:00,90.0,75.0,30.15,NNW,336,1.0,4.0,62,-99.99,,,-99.99,,2013-07-07 17:22:00,
2013-07-07 13:34:00,92.0,78.0,30.14,WNW,291,1.0,6.0,63,-99.99,,,-99.99,,2013-07-07 17:34:00,
2013-07-07 13:43:00,92.0,79.0,30.14,WSW,256,1.0,6.0,65,-99.99,,,-99.99,,2013-07-07 17:43:00,
2013-07-07 13:53:00,92.0,78.0,30.14,WNW,285,2.0,6.0,63,-99.99,,,-99.99,,2013-07-07 17:53:00,
2013-07-07 14:02:00,91.0,77.0,30.14,WSW,246,2.0,7.0,64,-99.99,,,-99.99,,2013-07-07 18:02:00,
2013-07-07 14:12:00,91.0,77.0,30.13,NW,305,1.0,7.0,63,-99.99,,,-99.99,,2013-07-07 18:12:00,
2013-07-07 14:22:00,91.0,77.0,30.13,NW,305,1.0,7.0,63,-99.99,,,-99.99,,2013-07-07 18:22:00,
2013-07-07 14:33:00,91.0,77.0,30.13,NW,305,1.0,7.0,63,-99.99,,,-99.99,,2013-07-07 18:33:00,
2013-07-07 14:43:00,92.0,76.0,30.12,ESE,120,2.0,5.0,59,-99.99,,,-99.99,,2013-07-07 18:43:00,
2013-07-07 14:53:00,92.0,76.0,30.12,ESE,120,2.0,5.0,59,-99.99,,,-99.99,,2013-07-07 18:53:00,
2013-07-07 15:01:00,91.0,75.0,30.12,ENE,71,2.0,7.0,59,-99.99,,,-99.99,,2013-07-07 19:01:00,
2013-07-07 15:11:00,91.0,75.0,30.12,NW,321,1.0,6.0,59,-99.99,,,-99.99,,2013-07-07 19:11:00,
2013-07-07 15:22:00,91.0,75.0,30.12,NW,321,1.0,6.0,59,-99.99,,,-99.99,,2013-07-07 19:22:00,
2013-07-07 15:34:00,91.0,76.0,30.12,West,269,2.0,5.0,61,-99.99,,,-99.99,,2013-07-07 19:34:00,
2013-07-07 15:43:00,91.0,75.0,30.12,WNW,285,1.0,5.0,60,-99.99,,,-99.99,,2013-07-07 19:43:00,
2013-07-07 15:54:00,91.0,74.0,30.11,WNW,289,1.0,4.0,57,-99.99,,,-99.99,,2013-07-07 19:54:00,
2013-07-07 16:02:00,90.0,72.0,30.11,NW,315,1.0,5.0,56,-99.99,,,-99.99,,2013-07-07 20:02:00,
2013-07-07 16:11:00,90.0,74.0,30.10,NNE,12,1.0,5.0,60,-99.99,,,-99.99,,2013-07-07 20:11:00,
2013-07-07 16:22:00,90.0,74.0,30.10,NNE,12,1.0,5.0,60,-99.99,,,-99.99,,2013-07-07 20:22:00,
2013-07-07 16:34:00,90.0,75.0,30.11,WSW,246,1.0,4.0,62,-99.99,,,-99.99,,2013-07-07 20:34:00,
2013-07-07 16:42:00,90.0,75.0,30.11,WSW,246,1.0,4.0,62,-99.99,,,-99.99,,2013-07-07 20:42:00,
2013-07-07 16:53:00,90.0,75.0,30.11,WSW,246,1.0,4.0,62,-99.99,,,-99.99,,2013-07-07 20:53:00,
2013-07-07 17:02:00,89.0,77.0,30.09,SE,126,1.0,3.0,69,-99.99,,,-99.99,,2013-07-07 21:02:00,
2013-07-07 17:11:00,89.0,77.0,30.09,SE,126,1.0,3.0,69,-99.99,,,-99.99,,2013-07-07 21:11:00,
2013-07-07 17:22:00,87.0,76.0,30.09,WSW,246,1.0,5.0,70,-99.99,,,-99.99,,2013-07-07 21:22:00,
2013-07-07 17:34:00,87.0,76.0,30.09,WSW,246,1.0,5.0,70,-99.99,,,-99.99,,2013-07-07 21:34:00,
2013-07-07 17:43:00,86.0,76.0,30.09,WNW,302,1.0,4.0,73,-99.99,,,-99.99,,2013-07-07 21:43:00,
2013-07-07 17:53:00,85.0,76.0,30.09,West,259,1.0,4.0,74,-99.99,,,-99.99,,2013-07-07 21:53:00,
2013-07-07 18:01:00,85.0,76.0,30.09,West,259,1.0,4.0,74,-99.99,,,-99.99,,2013-07-07 22:01:00,
2013-07-07 18:11:00,85.0,77.0,30.09,SW,232,0.0,2.0,76,-99.99,,,-99.99,,2013-07-07 22:11:00,
2013-07-07 18:22:00,84.0,76.0,30.09,East,100,0.0,1.0,76,-99.99,,,-99.99,,2013-07-07 22:22:00,
2013-07-07 18:34:00,83.0,76.0,30.09,SW,229,0.0,3.0,79,-99.99,,,-99.99,,2013-07-07 22:34:00,
2013-07-07 18:44:00,83.0,76.0,30.09,SW,229,0.0,3.0,79,-99.99,,,-99.99,,2013-07-07 22:44:00,
2013-07-07 18:53:00,82.0,76.0,30.09,West,270,1.0,3.0,81,-99.99,,,-99.99,,2013-07-07 22:53:00,
2013-07-07 19:02:00,82.0,76.0,30.09,NNW,347,0.0,2.0,81,-99.99,,,-99.99,,2013-07-07 23:02:00,
2013-07-07 19:12:00,82.0,76.0,30.09,ESE,122,0.0,3.0,82,-99.99,,,-99.99,,2013-07-07 23:12:00,
2013-07-07 19:22:00,81.0,75.0,30.09,East,89,1.0,3.0,83,-99.99,,,-99.99,,2013-07-07 23:22:00,
2013-07-07 19:33:00,81.0,75.0,30.09,SSE,153,1.0,3.0,83,-99.99,,,-99.99,,2013-07-07 23:33:00,
2013-07-07 19:43:00,81.0,75.0,30.09,SSE,153,1.0,3.0,83,-99.99,,,-99.99,,2013-07-07 23:43:00,
2013-07-07 19:53:00,80.0,75.0,30.09,East,82,0.0,3.0,84,-99.99,,,-99.99,,2013-07-07 23:53:00,
2013-07-07 20:02:00,80.0,75.0,30.09,ESE,109,0.0,3.0,85,-99.99,,,-99.99,,2013-07-08 00:02:00,
2013-07-07 20:12:00,80.0,75.0,30.09,WSW,243,0.0,3.0,85,-99.99,,,-99.99,,2013-07-08 00:12:00,
2013-07-07 20:22:00,79.0,74.0,30.09,East,100,0.0,1.0,86,-99.99,,,-99.99,,2013-07-08 00:22:00,
2013-07-07 20:33:00,79.0,74.0,30.09,East,100,0.0,1.0,86,-99.99,,,-99.99,,2013-07-08 00:33:00,
2013-07-07 20:43:00,79.0,75.0,30.08,East,100,0.0,1.0,87,-99.99,,,-99.99,,2013-07-08 00:43:00,
2013-07-07 20:53:00,78.0,74.0,30.09,West,277,0.0,1.0,87,-99.99,,,-99.99,,2013-07-08 00:53:00,
2013-07-07 21:01:00,78.0,74.0,30.09,SW,226,0.0,2.0,87,-99.99,,,-99.99,,2013-07-08 01:01:00,
2013-07-07 21:11:00,78.0,74.0,30.09,SW,226,0.0,2.0,88,-99.99,,,-99.99,,2013-07-08 01:11:00,
2013-07-07 21:22:00,78.0,74.0,30.10,SW,227,0.0,1.0,88,-99.99,,,-99.99,,2013-07-08 01:22:00,
2013-07-07 21:32:00,77.0,74.0,30.11,SW,227,0.0,1.0,89,-99.99,,,-99.99,,2013-07-08 01:32:00,
2013-07-07 21:43:00,77.0,74.0,30.11,SW,227,0.0,0.0,89,-99.99,,,-99.99,,2013-07-08 01:43:00,
2013-07-07 21:53:00,77.0,74.0,30.11,SW,226,0.0,0.0,89,-99.99,,,-99.99,,2013-07-08 01:53:00,
2013-07-07 22:02:00,77.0,74.0,30.11,SW,226,0.0,1.0,90,-99.99,,,-99.99,,2013-07-08 02:02:00,
2013-07-07 22:11:00,77.0,74.0,30.11,SW,226,0.0,1.0,90,-99.99,,,-99.99,,2013-07-08 02:11:00,
2013-07-07 22:22:00,76.0,73.0,30.11,WSW,253,0.0,2.0,91,-99.99,,,-99.99,,2013-07-08 02:22:00,
2013-07-07 22:33:00,76.0,73.0,30.11,WSW,253,0.0,1.0,91,-99.99,,,-99.99,,2013-07-08 02:33:00,
2013-07-07 22:42:00,76.0,73.0,30.10,NNW,347,0.0,1.0,91,-99.99,,,-99.99,,2013-07-08 02:42:00,
2013-07-07 22:52:00,76.0,73.0,30.10,NNW,347,0.0,0.0,91,-99.99,,,-99.99,,2013-07-08 02:52:00,
2013-07-07 23:02:00,76.0,73.0,30.09,NNE,26,0.0,1.0,91,-99.99,,,-99.99,,2013-07-08 03:02:00,
2013-07-07 23:12:00,75.0,73.0,30.08,NNE,26,0.0,1.0,92,-99.99,,,-99.99,,2013-07-08 03:12:00,
2013-07-07 23:23:00,75.0,73.0,30.05,NE,53,0.0,1.0,92,-99.99,,,-99.99,,2013-07-08 03:23:00,
2013-07-07 23:34:00,75.0,73.0,30.07,WNW,291,1.0,1.0,92,-99.99,,,-99.99,,2013-07-08 03:34:00,
2013-07-07 23:42:00,75.0,73.0,30.07,WNW,291,0.0,1.0,92,-99.99,,,-99.99,,2013-07-08 03:42:00,
2013-07-07 23:52:00,75.0,73.0,30.08,WNW,294,0.0,1.0,92,-99.99,,,-99.99,,2013-07-08 03:52:00,